| time (UTC) | temp C | wind direction | speed KPH | gust KPH | rain 1hr cm | rain 24hr cm | rain mn cm | humidity % | barometer mb |
| 20260504081515 | -7 | 0.0 | 0.0 | 0.00 | 0.00 | 0.00 | |||
| 20260504080515 | -7 | 0.0 | 0.0 | 0.00 | 0.00 | 0.00 | 100 | 1004.6 | |
| 20260504050536 | -5 | 0.0 | 0.0 | 0.00 | 0.00 | 0.00 | 100 | 1005.5 | |
| 20260504045536 | -5 | 0.0 | 0.0 | 0.00 | 0.00 | 0.00 | 100 | 1005.6 | |
| 20260504044515 | -5 | 0.0 | 0.0 | 0.00 | 0.00 | 0.00 | 100 | 1005.8 | |
| 20260504043515 | -5 | 115 | 0.0 | 1.6 | 0.00 | 0.00 | 0.00 | 100 | 1006.0 |
| 20260504042516 | -5 | 0.0 | 0.0 | 0.00 | 0.00 | 0.00 | 100 | 1006.0 | |
| 20260504041516 | -5 | 318 | 3.2 | 3.2 | 0.00 | 0.00 | 0.00 | 99 | 1006.2 |
| 20260504040516 | -5 | 0.0 | 0.0 | 0.00 | 0.00 | 0.00 | 97 | 1006.0 | |
| 20260504035535 | -5 | 82 | 1.6 | 4.8 | 0.00 | 0.00 | 0.00 | 92 | 1006.0 |
| 20260504034515 | -5 | 0.0 | 0.0 | 0.00 | 0.00 | 0.00 | 92 | 1006.4 | |
| 20260504033535 | -5 | 0.0 | 0.0 | 0.00 | 0.00 | 0.00 | 36 | 1006.7 | |
| 20260504032516 | -5 | 259 | 0.0 | 1.6 | 0.00 | 0.00 | 0.00 | 100 | 1006.5 |
| 20260504031516 | -5 | 268 | 3.2 | 6.4 | 0.00 | 0.00 | 0.00 | 100 | 1006.9 |
| 20260504030536 | -5 | 264 | 8.0 | 14.5 | 0.00 | 0.00 | 0.00 | 100 | 1007.0 |
| 20260504025515 | -5 | 268 | 8.0 | 14.5 | 0.00 | 0.00 | 0.00 | 100 | 1007.1 |
| 20260504024515 | -4 | 272 | 6.4 | 11.3 | 0.00 | 0.00 | 0.00 | 100 | 1007.0 |
| 20260504023515 | -4 | 276 | 4.8 | 9.7 | 0.00 | 0.00 | 0.00 | 100 | 1007.0 |
| 20260504022516 | -4 | 277 | 6.4 | 12.9 | 0.00 | 0.00 | 0.00 | 100 | 1006.9 |
| 20260504021515 | -4 | 274 | 4.8 | 8.0 | 0.00 | 0.00 | 0.00 | 100 | 1006.8 |
| 20260504020515 | -4 | 283 | 3.2 | 9.7 | 0.00 | 0.00 | 0.00 | 100 | 1006.7 |
| 20260504015515 | -4 | 274 | 4.8 | 16.1 | 0.00 | 0.00 | 0.00 | 100 | 1006.7 |
| 20260504014515 | -4 | 272 | 4.8 | 8.0 | 0.00 | 0.00 | 0.00 | 100 | 1006.7 |
| 20260504013515 | -4 | 266 | 6.4 | 8.0 | 0.00 | 0.00 | 0.00 | 100 | 1006.7 |
| 20260504012515 | -4 | 271 | 6.4 | 9.7 | 0.00 | 0.00 | 0.00 | 100 | 1006.7 |
| 20260504011515 | -3 | 272 | 8.0 | 14.5 | 0.00 | 0.00 | 0.00 | 100 | 1006.6 |
| 20260504010515 | -3 | 277 | 9.7 | 19.3 | 0.00 | 0.00 | 0.00 | 100 | 1006.6 |
| 20260504005515 | -3 | 276 | 11.3 | 24.1 | 0.00 | 0.00 | 0.00 | 100 | 1006.7 |
| 20260504004535 | -3 | 263 | 11.3 | 22.5 | 0.00 | 0.00 | 0.00 | 100 | 1006.8 |
| 20260504003516 | -3 | 263 | 8.0 | 11.3 | 0.00 | 0.00 | 0.00 | 100 | 1006.6 |
| 20260504002515 | -4 | 262 | 8.0 | 9.7 | 0.00 | 0.00 | 0.00 | 100 | 1006.5 |
| 20260504001515 | -3 | 259 | 9.7 | 14.5 | 0.00 | 0.00 | 0.00 | 100 | 1006.3 |
| 20260504000515 | -3 | 263 | 6.4 | 9.7 | 0.00 | 0.00 | 0.00 | 100 | 1006.2 |
| 20260503235535 | -3 | 261 | 9.7 | 14.5 | 0.00 | 0.00 | 0.00 | 100 | 1006.1 |
| 20260503234535 | -3 | 258 | 9.7 | 16.1 | 0.00 | 0.00 | 0.00 | 100 | 1006.0 |
| 20260503233515 | -3 | 263 | 9.7 | 19.3 | 0.00 | 0.00 | 0.00 | ||
| 20260503232515 | -3 | 267 | 12.9 | 24.1 | 0.00 | 0.00 | 0.00 | ||
| 20260503231515 | -3 | 250 | 17.7 | 27.4 | 0.00 | 0.00 | 0.00 | ||
| 20260503230515 | -3 | 260 | 14.5 | 27.4 | 0.00 | 0.00 | 0.00 | ||
| 20260503225535 | -3 | 258 | 14.5 | 22.5 | 0.00 | 0.00 | 0.00 | ||
| 20260503224515 | -3 | 262 | 11.3 | 20.9 | 0.00 | 0.00 | 0.00 | ||
| 20260503223555 | -2 | 250 | 19.3 | 30.6 | 0.00 | 0.00 | 0.00 | ||
| 20260503222515 | -2 | 253 | 12.9 | 20.9 | 0.00 | 0.00 | 0.00 | ||
| 20260503221515 | -2 | 262 | 17.7 | 32.2 | 0.00 | 0.00 | 0.00 | ||
| 20260503220536 | -2 | 253 | 19.3 | 35.4 | 0.00 | 0.00 | 0.00 | ||
| 20260503215515 | -2 | 252 | 16.1 | 29.0 | 0.00 | 0.00 | 0.00 | ||
| 20260503214515 | -2 | 253 | 16.1 | 30.6 | 0.00 | 0.00 | 0.00 | ||
| 20260503213556 | -3 | 249 | 19.3 | 35.4 | 0.00 | 0.00 | 0.00 | ||
| 20260503212515 | -3 | 255 | 17.7 | 29.0 | 0.00 | 0.00 | 0.00 | ||
| 20260503211515 | -2 | 251 | 19.3 | 33.8 | 0.00 | 0.00 | 0.00 | ||
| 20260503210556 | -2 | 259 | 20.9 | 32.2 | 0.00 | 0.00 | 0.00 | ||
| 20260503205515 | -2 | 261 | 16.1 | 33.8 | 0.00 | 0.00 | 0.00 | ||
| 20260503204535 | -2 | 258 | 16.1 | 29.0 | 0.00 | 0.00 | 0.00 | ||
| 20260503203515 | -2 | 257 | 16.1 | 33.8 | 0.00 | 0.00 | 0.00 | ||
| 20260503202515 | -2 | 256 | 17.7 | 37.0 | 0.00 | 0.00 | 0.00 | ||
| 20260503201536 | -1 | 250 | 16.1 | 30.6 | 0.00 | 0.00 | 0.00 | ||
| 20260503200515 | -2 | 264 | 12.9 | 29.0 | 0.00 | 0.00 | 0.00 | ||
| 20260503195515 | -2 | 258 | 16.1 | 32.2 | 0.00 | 0.00 | 0.00 | ||
| 20260503194536 | -2 | 247 | 19.3 | 35.4 | 0.00 | 0.00 | 0.00 | ||
| 20260503193515 | -2 | 256 | 17.7 | 32.2 | 0.00 | 0.00 | 0.00 | ||
| 20260503192515 | -2 | 258 | 16.1 | 38.6 | 0.00 | 0.00 | 0.00 | ||
| 20260503191515 | -2 | 248 | 20.9 | 35.4 | 0.00 | 0.00 | 0.00 | ||
| 20260503190515 | -2 | 265 | 17.7 | 32.2 | 0.00 | 0.00 | 0.00 | ||
| 20260503185515 | -2 | 255 | 16.1 | 30.6 | 0.00 | 0.00 | 0.00 | ||
| 20260503184515 | -2 | 251 | 20.9 | 35.4 | 0.00 | 0.00 | 0.00 | ||
| 20260503183516 | -2 | 253 | 16.1 | 27.4 | 0.00 | 0.00 | 0.00 | ||
| 20260503182535 | -2 | 246 | 19.3 | 35.4 | 0.00 | 0.00 | 0.00 | ||
| 20260503181515 | -3 | 245 | 17.7 | 37.0 | 0.00 | 0.00 | 0.00 | ||
| 20260503180515 | -2 | 250 | 17.7 | 27.4 | 0.00 | 0.00 | 0.00 | ||
| 20260503175516 | -3 | 249 | 20.9 | 32.2 | 0.00 | 0.00 | 0.00 | ||
| 20260503174515 | -3 | 254 | 16.1 | 25.7 | 0.00 | 0.00 | 0.00 | ||
| 20260503173515 | -3 | 251 | 16.1 | 27.4 | 0.00 | 0.00 | 0.00 | ||
| 20260503172536 | -3 | 257 | 11.3 | 17.7 | 0.00 | 0.00 | 0.00 | ||
| 20260503171515 | -3 | 262 | 12.9 | 24.1 | 0.00 | 0.00 | 0.00 | ||
| 20260503170515 | -3 | 270 | 8.0 | 17.7 | 0.00 | 0.00 | 0.00 | ||
| 20260503150515 | -4 | 263 | 11.3 | 17.7 | 0.00 | 0.00 | 0.00 | 100 | 1008.0 |
| 20260503130536 | -5 | 254 | 14.5 | 27.4 | 0.00 | 0.00 | 0.00 | ||
| 20260503110515 | -6 | 271 | 8.0 | 12.9 | 0.00 | 0.00 | 0.00 |